Lake Charles, LA

8:46 AM CST on February 23, 2017 (GMT -0600)
Chennault International

Weather History for KCWF - April, 2014

Change the Weather History Date:

Thursday, April 10, 2014

  Actual Average Record
Temperature  
Mean Temperature 63 °F -  
Max Temperature 75 °F 76 °F 87 °F (2001)
Min Temperature 51 °F 61 °F 41 °F (2003)
Degree Days  
Heating Degree Days 2    
Growing Degree Days 13 (Base 50)    
Moisture  
Dew Point 51 °F    
Average Humidity 77    
Maximum Humidity 92    
Minimum Humidity 41    
Precipitation  
Precipitation 0.00 in - - ()
Sea Level Pressure  
Sea Level Pressure 30.17 in    
Wind  
Wind Speed 5 mph (SSE)    
Max Wind Speed 18 mph    
Max Gust Speed 23 mph    
Visibility 10 miles    
Events      
Averages and records for this station are not official NWS values.
T = Trace of Precipitation, MM = Missing Value Source: NWS Daily Summary

Daily Weather History Graph

Daily Weather History Graph

Search for Another Location

Airport or City:

Trip Planner

Search our weather history database for the weather conditions in past years. The results will help you decide how hot, cold, wet, or windy it might be!

Date:

Astronomy

Apr. 10, 2014 Rise Set
Actual Time 6:51 AM CDT 7:36 PM CDT
Civil Twilight 6:26 AM CDT 8:01 PM CDT
Nautical Twilight 5:58 AM CDT 8:30 PM CDT
Astronomical Twilight 5:28 AM CDT 8:59 PM CDT
Moon 3:38 PM CDT (4/10) 3:55 AM CDT (4/10)
Length of Visible Light 13h 34m
Length of Day
12h 45m
Waxing Gibbous, 80% of the Moon is Illuminated
Apr 10
Waxing Gibbous
Apr 15
Full
Apr 22
Last Quarter
Apr 29
New
May 6
First Quarter

Hourly Weather History & Observations

Time (CDT) Temp. Dew Point Humidity Pressure Visibility Wind Dir Wind Speed Gust Speed Precip Events Conditions
12:15 AM 53.8 °F 48.6 °F 82% 30.21 in 10.0 mi Calm Calm - N/A   Clear
12:35 AM 53.1 °F 49.3 °F 87% 30.20 in 10.0 mi Calm Calm - N/A   Clear
12:55 AM 52.5 °F 49.3 °F 89% 30.20 in 10.0 mi Calm Calm - N/A   Clear
1:15 AM 53.4 °F 49.8 °F 88% 30.20 in 10.0 mi Calm Calm - N/A   Clear
1:35 AM 53.6 °F 49.8 °F 87% 30.19 in 10.0 mi SSE 4.6 mph - N/A   Clear
1:55 AM 53.1 °F 50.0 °F 89% 30.19 in 10.0 mi SE 4.6 mph - N/A   Clear
2:15 AM 52.7 °F 50.0 °F 91% 30.18 in 10.0 mi Calm Calm - N/A   Clear
2:35 AM 52.7 °F 50.0 °F 91% 30.18 in 10.0 mi Calm Calm - N/A   Clear
2:55 AM 52.3 °F 49.6 °F 91% 30.18 in 10.0 mi Calm Calm - N/A   Clear
3:15 AM 52.5 °F 49.8 °F 91% 30.17 in 10.0 mi South 3.5 mph - N/A   Clear
3:35 AM 51.8 °F 49.5 °F 92% 30.17 in 10.0 mi Calm Calm - N/A   Clear
3:55 AM 51.8 °F 49.5 °F 92% 30.17 in 10.0 mi SE 3.5 mph - N/A   Clear
4:15 AM 52.0 °F 49.8 °F 92% 30.17 in 10.0 mi Calm Calm - N/A   Clear
6:00 AM 51.8 °F 48.2 °F 88% 30.18 in 7.0 mi Calm Calm - N/A   Clear
7:45 AM 57.2 °F 53.6 °F 88% 30.18 in 7.0 mi Calm Calm - N/A   Clear
8:50 AM 64.4 °F 57.2 °F 77% 30.19 in 10.0 mi SSE 9.2 mph - N/A   Clear
9:50 AM 69.8 °F 53.6 °F 56% 30.21 in 10.0 mi South 15.0 mph 20.7 mph N/A   Clear
10:50 AM 71.6 °F 51.8 °F 50% 30.22 in 10.0 mi South 15.0 mph 23.0 mph N/A   Clear
11:50 AM 73.4 °F 51.8 °F 47% 30.22 in 10.0 mi South 13.8 mph - N/A   Clear
12:50 PM 73.4 °F 51.8 °F 47% 30.22 in 10.0 mi South 16.1 mph 19.6 mph N/A   Clear
1:50 PM 75.2 °F 50.0 °F 41% 30.19 in 10.0 mi South 17.3 mph 20.7 mph N/A   Clear
2:50 PM 75.2 °F 51.8 °F 44% 30.17 in 10.0 mi South 18.4 mph 21.9 mph N/A   Clear
3:53 PM 75.2 °F 50.0 °F 41% 30.15 in 10.0 mi South 16.1 mph 20.7 mph N/A   Clear
4:50 PM 73.4 °F 51.8 °F 47% 30.13 in 10.0 mi South 16.1 mph 20.7 mph N/A   Clear
5:50 PM 71.6 °F 51.8 °F 50% 30.13 in 10.0 mi South 12.7 mph - N/A   Clear
6:45 PM 69.8 °F 51.8 °F 53% 30.12 in 10.0 mi South 12.7 mph - N/A   Clear
7:45 PM 64.4 °F 53.6 °F 68% 30.13 in 10.0 mi SSE 6.9 mph - N/A   Clear
8:45 PM 57.2 °F 51.8 °F 82% 30.12 in 10.0 mi SSE 6.9 mph - N/A   Clear
9:15 PM 58.1 °F 53.1 °F 83% 30.13 in 10.0 mi SSE 8.1 mph - N/A   Clear
9:35 PM 57.4 °F 53.2 °F 86% 30.13 in 10.0 mi SSE 8.1 mph - N/A   Clear
9:45 PM 57.2 °F 51.8 °F 82% 30.12 in 10.0 mi SSE 8.1 mph - N/A   Clear
9:55 PM 57.4 °F 53.4 °F 87% 30.14 in 10.0 mi SSE 5.8 mph - N/A   Clear
10:15 PM 55.4 °F 52.2 °F 89% 30.14 in 10.0 mi SSE 5.8 mph - N/A   Clear
10:35 PM 55.8 °F 52.9 °F 90% 30.14 in 10.0 mi SSE 6.9 mph - N/A   Clear
10:55 PM 56.3 °F 53.1 °F 89% 30.14 in 10.0 mi SSE 5.8 mph - N/A   Clear
11:15 PM 55.6 °F 52.9 °F 91% 30.13 in 10.0 mi SSE 6.9 mph - N/A   Clear
11:35 PM 55.8 °F 53.1 °F 91% 30.13 in 10.0 mi SSE 5.8 mph - N/A   Clear
11:55 PM 55.2 °F 52.9 °F 92% 30.12 in 10.0 mi SSE 8.1 mph - N/A   Scattered Clouds